| time (UTC) | temp F | wind direction | speed knots | gust knots | rain 1hr in | rain 24hr in | rain mn in | humidity % | barometer mb |
| 20260507065037 | 53 | 287 | 0.9 | 5.2 | 0.00 | 0.00 | 0.00 | 92 | 1018.3 |
| 20260507064548 | 53 | 279 | 1.7 | 5.2 | 0.00 | 0.00 | 0.00 | 92 | 1018.3 |
| 20260507064038 | 53 | 294 | 0.9 | 3.5 | 0.00 | 0.00 | 0.00 | 92 | 1018.4 |
| 20260507063539 | 53 | 284 | 0.9 | 5.2 | 0.00 | 0.00 | 0.00 | 92 | 1018.4 |
| 20260507063049 | 53 | 279 | 1.7 | 5.2 | 0.00 | 0.00 | 0.00 | 91 | 1018.4 |
| 20260507062537 | 53 | 279 | 1.7 | 5.2 | 0.00 | 0.00 | 0.00 | 91 | 1018.5 |
| 20260507062037 | 53 | 246 | 0.9 | 5.2 | 0.00 | 0.00 | 0.00 | 92 | 1018.4 |
| 20260507061544 | 53 | 256 | 1.7 | 5.2 | 0.00 | 0.00 | 0.00 | 92 | 1018.4 |
| 20260507061037 | 53 | 244 | 1.7 | 5.2 | 0.00 | 0.00 | 0.00 | 92 | 1018.4 |
| 20260507060537 | 53 | 254 | 1.7 | 6.1 | 0.00 | 0.00 | 0.00 | 92 | 1018.4 |
| 20260507060051 | 53 | 275 | 0.9 | 6.1 | 0.00 | 0.00 | 0.00 | 91 | 1018.4 |
| 20260507055539 | 53 | 278 | 0.9 | 7.0 | 0.00 | 0.00 | 0.00 | 91 | 1018.4 |
| 20260507055037 | 53 | 271 | 1.7 | 7.0 | 0.00 | 0.00 | 0.00 | 91 | 1018.3 |
| 20260507054547 | 53 | 292 | 1.7 | 6.1 | 0.00 | 0.00 | 0.00 | 91 | 1018.4 |
| 20260507054037 | 53 | 259 | 1.7 | 4.3 | 0.00 | 0.00 | 0.00 | 91 | 1018.4 |
| 20260507053538 | 53 | 289 | 0.9 | 3.5 | 0.00 | 0.00 | 0.00 | 91 | 1018.4 |
| 20260507053054 | 53 | 280 | 0.9 | 6.1 | 0.00 | 0.00 | 0.00 | 91 | 1018.4 |
| 20260507052538 | 53 | 321 | 2.6 | 6.1 | 0.00 | 0.00 | 0.00 | 91 | 1018.5 |
| 20260507052038 | 53 | 329 | 2.6 | 6.1 | 0.00 | 0.00 | 0.00 | 91 | 1018.5 |
| 20260507051548 | 53 | 280 | 1.7 | 6.1 | 0.00 | 0.00 | 0.00 | 91 | 1018.5 |
| 20260507051041 | 53 | 275 | 2.6 | 6.1 | 0.00 | 0.00 | 0.00 | 91 | 1018.6 |
| 20260507050539 | 53 | 244 | 1.7 | 6.1 | 0.00 | 0.00 | 0.00 | 91 | 1018.5 |
| 20260507050044 | 53 | 275 | 2.6 | 7.8 | 0.00 | 0.00 | 0.00 | 91 | 1018.6 |
| 20260507045541 | 54 | 268 | 2.6 | 7.8 | 0.00 | 0.00 | 0.00 | 91 | 1018.5 |
| 20260507045038 | 54 | 302 | 1.7 | 6.1 | 0.00 | 0.00 | 0.00 | 91 | 1018.6 |
| 20260507044555 | 54 | 289 | 1.7 | 6.1 | 0.00 | 0.00 | 0.00 | 91 | 1018.6 |
| 20260507044037 | 54 | 279 | 2.6 | 6.1 | 0.00 | 0.00 | 0.00 | 91 | 1018.6 |
| 20260507043537 | 54 | 275 | 1.7 | 7.0 | 0.00 | 0.00 | 0.00 | 91 | 1018.5 |
| 20260507043048 | 54 | 269 | 1.7 | 7.0 | 0.00 | 0.00 | 0.00 | 91 | 1018.5 |
| 20260507042537 | 54 | 284 | 1.7 | 7.0 | 0.00 | 0.00 | 0.00 | 90 | 1018.5 |
| 20260507042040 | 54 | 346 | 1.7 | 7.0 | 0.00 | 0.00 | 0.00 | 90 | 1018.6 |
| 20260507041545 | 54 | 325 | 1.7 | 7.0 | 0.00 | 0.00 | 0.00 | 91 | 1018.5 |
| 20260507041038 | 54 | 320 | 2.6 | 7.0 | 0.00 | 0.00 | 0.00 | 90 | 1018.5 |
| 20260507040541 | 54 | 280 | 2.6 | 7.0 | 0.00 | 0.00 | 0.00 | 90 | 1018.5 |
| 20260507040045 | 54 | 295 | 1.7 | 7.0 | 0.00 | 0.00 | 0.00 | 90 | 1018.5 |
| 20260507035537 | 54 | 297 | 1.7 | 6.1 | 0.00 | 0.00 | 0.00 | 90 | 1018.5 |
| 20260507035037 | 54 | 301 | 1.7 | 6.1 | 0.00 | 0.00 | 0.00 | 90 | 1018.4 |
| 20260507034545 | 54 | 257 | 1.7 | 8.7 | 0.00 | 0.00 | 0.00 | 90 | 1018.4 |
| 20260507034037 | 54 | 301 | 1.7 | 8.7 | 0.00 | 0.00 | 0.00 | 90 | 1018.3 |
| 20260507033539 | 54 | 284 | 2.6 | 7.0 | 0.00 | 0.00 | 0.00 | 90 | 1018.4 |
| 20260507033044 | 54 | 323 | 2.6 | 7.8 | 0.00 | 0.00 | 0.00 | 90 | 1018.4 |
| 20260507032539 | 54 | 330 | 1.7 | 7.8 | 0.00 | 0.00 | 0.00 | 90 | 1018.3 |
| 20260507032040 | 54 | 295 | 2.6 | 7.8 | 0.00 | 0.00 | 0.00 | 90 | 1018.3 |
| 20260507031549 | 54 | 299 | 1.7 | 6.1 | 0.00 | 0.00 | 0.00 | 90 | 1018.2 |
| 20260507031038 | 55 | 313 | 1.7 | 6.1 | 0.00 | 0.00 | 0.00 | 89 | 1018.2 |
| 20260507030538 | 55 | 270 | 1.7 | 5.2 | 0.00 | 0.00 | 0.00 | 89 | 1018.2 |
| 20260507030050 | 55 | 282 | 1.7 | 8.7 | 0.00 | 0.00 | 0.00 | 89 | 1018.1 |
| 20260507025536 | 55 | 266 | 1.7 | 8.7 | 0.00 | 0.00 | 0.00 | 89 | 1018.1 |
| 20260507025038 | 55 | 279 | 2.6 | 7.0 | 0.00 | 0.00 | 0.00 | 89 | 1018.1 |
| 20260507024549 | 55 | 292 | 0.9 | 7.0 | 0.00 | 0.00 | 0.00 | 89 | 1018.1 |
| 20260507024038 | 55 | 315 | 1.7 | 6.1 | 0.00 | 0.00 | 0.00 | 89 | 1018.0 |
| 20260507023538 | 55 | 297 | 1.7 | 7.0 | 0.00 | 0.00 | 0.00 | 89 | 1018.1 |
| 20260507023050 | 55 | 276 | 2.6 | 7.0 | 0.00 | 0.00 | 0.00 | 88 | 1018.1 |
| 20260507022537 | 55 | 284 | 2.6 | 7.0 | 0.00 | 0.00 | 0.00 | 88 | 1018.1 |
| 20260507022038 | 55 | 286 | 1.7 | 6.1 | 0.00 | 0.00 | 0.00 | 88 | 1018.1 |
| 20260507021551 | 56 | 275 | 1.7 | 6.1 | 0.00 | 0.00 | 0.00 | 87 | 1018.0 |
| 20260507021040 | 56 | 290 | 0.9 | 9.6 | 0.00 | 0.00 | 0.00 | 87 | 1018.1 |
| 20260507020537 | 56 | 265 | 1.7 | 9.6 | 0.00 | 0.00 | 0.00 | 87 | 1018.1 |
| 20260507020051 | 56 | 301 | 3.5 | 9.6 | 0.00 | 0.00 | 0.00 | 87 | 1018.2 |
| 20260507015536 | 56 | 272 | 1.7 | 7.8 | 0.00 | 0.00 | 0.00 | 87 | 1018.2 |
| 20260507015037 | 56 | 330 | 3.5 | 7.0 | 0.00 | 0.00 | 0.00 | 86 | 1018.2 |
| 20260507014554 | 56 | 248 | 2.6 | 9.6 | 0.00 | 0.00 | 0.00 | 86 | 1018.3 |
| 20260507014037 | 57 | 294 | 2.6 | 9.6 | 0.00 | 0.00 | 0.00 | 86 | 1018.2 |
| 20260507013541 | 57 | 321 | 2.6 | 8.7 | 0.00 | 0.00 | 0.00 | 86 | 1018.2 |
| 20260507013056 | 57 | 290 | 3.5 | 8.7 | 0.00 | 0.00 | 0.00 | 85 | 1018.3 |
| 20260507012537 | 57 | 286 | 3.5 | 8.7 | 0.00 | 0.00 | 0.00 | 85 | 1018.2 |
| 20260507012037 | 57 | 308 | 4.3 | 8.7 | 0.00 | 0.00 | 0.00 | 85 | 1018.2 |
| 20260507011545 | 57 | 284 | 2.6 | 7.8 | 0.00 | 0.00 | 0.00 | 85 | 1018.2 |
| 20260507011037 | 57 | 299 | 3.5 | 7.8 | 0.00 | 0.00 | 0.00 | 84 | 1018.3 |
| 20260507010537 | 57 | 314 | 2.6 | 7.8 | 0.00 | 0.00 | 0.00 | 85 | 1018.2 |
| 20260507010053 | 57 | 275 | 3.5 | 7.8 | 0.00 | 0.00 | 0.00 | 85 | 1018.2 |
| 20260507005538 | 57 | 300 | 2.6 | 7.0 | 0.00 | 0.00 | 0.00 | 85 | 1018.2 |
| 20260507005037 | 57 | 335 | 2.6 | 9.6 | 0.00 | 0.00 | 0.00 | 85 | 1018.2 |
| 20260507004540 | 57 | 287 | 1.7 | 9.6 | 0.00 | 0.00 | 0.00 | 85 | 1018.2 |
| 20260507004037 | 57 | 289 | 3.5 | 9.6 | 0.00 | 0.00 | 0.00 | 85 | 1018.2 |
| 20260507003540 | 57 | 268 | 1.7 | 7.0 | 0.00 | 0.00 | 0.00 | 85 | 1018.2 |
| 20260507003047 | 57 | 340 | 2.6 | 8.7 | 0.00 | 0.00 | 0.00 | 86 | 1018.1 |
| 20260507002539 | 57 | 304 | 2.6 | 8.7 | 0.00 | 0.00 | 0.00 | 86 | 1018.2 |
| 20260507002037 | 57 | 295 | 3.5 | 8.7 | 0.00 | 0.00 | 0.00 | 85 | 1018.2 |
| 20260507001545 | 57 | 291 | 2.6 | 8.7 | 0.00 | 0.00 | 0.00 | 86 | 1018.3 |
| 20260507001036 | 57 | 294 | 3.5 | 8.7 | 0.00 | 0.00 | 0.00 | 85 | 1018.3 |
| 20260507000540 | 57 | 280 | 1.7 | 7.0 | 0.00 | 0.00 | 0.00 | 85 | 1018.3 |
| 20260507000051 | 57 | 5 | 2.6 | 7.0 | 0.00 | 0.00 | 0.00 | 85 | 1018.2 |
| 20260506235537 | 57 | 281 | 1.7 | 7.0 | 0.00 | 0.00 | 0.00 | 85 | 1018.3 |
| 20260506235036 | 57 | 289 | 2.6 | 7.0 | 0.00 | 0.00 | 0.00 | 85 | 1018.2 |
| 20260506234543 | 57 | 320 | 2.6 | 7.0 | 0.00 | 0.00 | 0.00 | 85 | 1018.2 |
| 20260506234039 | 57 | 323 | 1.7 | 8.7 | 0.00 | 0.00 | 0.00 | 85 | 1018.2 |
| 20260506233540 | 57 | 290 | 1.7 | 8.7 | 0.00 | 0.00 | 0.00 | 85 | 1018.3 |
| 20260506233042 | 57 | 257 | 2.6 | 7.8 | 0.00 | 0.00 | 0.00 | 85 | 1018.3 |
| 20260506232537 | 57 | 257 | 3.5 | 7.8 | 0.00 | 0.00 | 0.00 | 84 | 1018.3 |
| 20260506232037 | 57 | 296 | 2.6 | 8.7 | 0.00 | 0.00 | 0.00 | 85 | 1018.3 |
| 20260506231544 | 57 | 300 | 3.5 | 8.7 | 0.00 | 0.00 | 0.00 | 84 | 1018.3 |
| 20260506231037 | 58 | 267 | 2.6 | 7.0 | 0.00 | 0.00 | 0.00 | 84 | 1018.3 |
| 20260506230536 | 58 | 306 | 2.6 | 7.0 | 0.00 | 0.00 | 0.00 | 84 | 1018.3 |
| 20260506230050 | 58 | 336 | 1.7 | 7.8 | 0.00 | 0.00 | 0.00 | 84 | 1018.4 |
| 20260506225537 | 58 | 0 | 1.7 | 7.8 | 0.00 | 0.00 | 0.00 | 85 | 1018.4 |
| 20260506225037 | 57 | 255 | 3.5 | 7.8 | 0.00 | 0.00 | 0.00 | 85 | 1018.5 |
| 20260506224559 | 58 | 336 | 1.7 | 6.1 | 0.00 | 0.00 | 0.00 | 85 | 1018.5 |
| 20260506224037 | 58 | 282 | 2.6 | 7.0 | 0.00 | 0.00 | 0.00 | 85 | 1018.6 |
| 20260506223536 | 58 | 304 | 1.7 | 7.0 | 0.00 | 0.00 | 0.00 | 85 | 1018.5 |
| 20260506223044 | 58 | 315 | 2.6 | 8.7 | 0.00 | 0.00 | 0.00 | 85 | 1018.6 |
| 20260506222537 | 58 | 316 | 1.7 | 8.7 | 0.00 | 0.00 | 0.00 | 85 | 1018.6 |
| 20260506222037 | 57 | 288 | 2.6 | 9.6 | 0.00 | 0.00 | 0.00 | 85 | 1018.7 |
| 20260506221543 | 58 | 248 | 3.5 | 9.6 | 0.00 | 0.00 | 0.00 | 85 | 1018.7 |
| 20260506221036 | 58 | 277 | 3.5 | 7.8 | 0.00 | 0.00 | 0.00 | 85 | 1018.8 |
| 20260506220536 | 58 | 313 | 1.7 | 7.0 | 0.00 | 0.00 | 0.00 | 85 | 1018.9 |
| 20260506220045 | 58 | 294 | 1.7 | 8.7 | 0.00 | 0.00 | 0.00 | 85 | 1019.0 |
| 20260506215537 | 58 | 257 | 3.5 | 8.7 | 0.00 | 0.00 | 0.00 | 85 | 1019.0 |
| 20260506215036 | 58 | 271 | 3.5 | 7.0 | 0.00 | 0.00 | 0.00 | 83 | 1019.0 |
| 20260506214559 | 59 | 321 | 3.5 | 7.0 | 0.00 | 0.00 | 0.00 | 82 | 1018.9 |
| 20260506214037 | 59 | 322 | 2.6 | 7.0 | 0.00 | 0.00 | 0.00 | 83 | 1018.9 |
| 20260506213538 | 59 | 351 | 2.6 | 7.0 | 0.00 | 0.00 | 0.00 | 83 | 1018.9 |
| 20260506213042 | 59 | 267 | 2.6 | 7.0 | 0.00 | 0.00 | 0.00 | 82 | 1019.1 |
| 20260506212537 | 59 | 317 | 3.5 | 7.0 | 0.00 | 0.00 | 0.00 | 82 | 1019.1 |
| 20260506212037 | 59 | 360 | 1.7 | 7.0 | 0.00 | 0.00 | 0.00 | 83 | 1019.0 |
| 20260506211546 | 59 | 281 | 2.6 | 8.7 | 0.00 | 0.00 | 0.00 | 82 | 1019.0 |
| 20260506211036 | 59 | 284 | 1.7 | 8.7 | 0.00 | 0.00 | 0.00 | 84 | 1019.0 |
| 20260506210537 | 58 | 292 | 3.5 | 8.7 | 0.00 | 0.00 | 0.00 | 83 | 1018.9 |
| 20260506210044 | 58 | 292 | 2.6 | 7.8 | 0.00 | 0.00 | 0.00 | 84 | 1019.0 |
| 20260506205536 | 59 | 292 | 2.6 | 7.0 | 0.00 | 0.00 | 0.00 | 82 | 1019.1 |
| 20260506205036 | 60 | 293 | 1.7 | 7.0 | 0.00 | 0.00 | 0.00 | 84 | 1019.0 |
| 20260506204544 | 58 | 334 | 2.6 | 7.0 | 0.00 | 0.00 | 0.00 | 84 | 1019.2 |
| 20260506204038 | 59 | 308 | 1.7 | 6.1 | 0.00 | 0.00 | 0.00 | 82 | 1019.2 |
| 20260506203537 | 59 | 327 | 1.7 | 6.1 | 0.00 | 0.00 | 0.00 | 84 | 1019.3 |
| 20260506203047 | 59 | 307 | 2.6 | 6.1 | 0.00 | 0.00 | 0.00 | 83 | 1019.3 |
| 20260506202536 | 59 | 317 | 2.6 | 6.1 | 0.00 | 0.00 | 0.00 | 82 | 1019.3 |
| 20260506202037 | 60 | 281 | 1.7 | 7.0 | 0.00 | 0.00 | 0.00 | 82 | 1019.3 |
| 20260506201544 | 59 | 299 | 2.6 | 7.0 | 0.00 | 0.00 | 0.00 | 84 | 1019.4 |
| 20260506201037 | 59 | 284 | 1.7 | 5.2 | 0.00 | 0.00 | 0.00 | 83 | 1019.4 |
| 20260506200538 | 59 | 237 | 0.9 | 5.2 | 0.00 | 0.00 | 0.00 | 83 | 1019.5 |
| 20260506200048 | 59 | 281 | 1.7 | 5.2 | 0.00 | 0.00 | 0.00 | 82 | 1019.5 |
| 20260506195537 | 59 | 287 | 1.7 | 6.1 | 0.00 | 0.00 | 0.00 | 83 | 1019.5 |
| 20260506195037 | 60 | 313 | 1.7 | 6.1 | 0.00 | 0.00 | 0.00 | 83 | 1019.6 |
| 20260506194558 | 59 | 9 | 2.6 | 5.2 | 0.00 | 0.00 | 0.00 | 83 | 1019.6 |
| 20260506194044 | 60 | 319 | 1.7 | 5.2 | 0.00 | 0.00 | 0.00 | 81 | 1019.6 |
| 20260506193537 | 60 | 290 | 1.7 | 6.1 | 0.00 | 0.00 | 0.00 | 82 | 1019.7 |
| 20260506193043 | 59 | 319 | 1.7 | 6.1 | 0.00 | 0.00 | 0.00 | 82 | 1019.6 |
| 20260506192536 | 60 | 341 | 1.7 | 4.3 | 0.00 | 0.00 | 0.00 | 84 | 1019.6 |
| 20260506192036 | 59 | 319 | 1.7 | 5.2 | 0.00 | 0.00 | 0.00 | 82 | 1019.8 |
| 20260506191552 | 59 | 5 | 1.7 | 6.1 | 0.00 | 0.00 | 0.00 | 84 | 1019.8 |
| 20260506191036 | 59 | 290 | 1.7 | 6.1 | 0.00 | 0.00 | 0.00 | 83 | 1019.8 |
| 20260506190538 | 59 | 288 | 1.7 | 5.2 | 0.00 | 0.00 | 0.00 | 82 | 1019.9 |
| 20260506190044 | 59 | 243 | 1.7 | 5.2 | 0.00 | 0.00 | 0.00 | 80 | 1019.8 |
| 20260506185538 | 60 | 328 | 1.7 | 6.1 | 0.00 | 0.00 | 0.00 | 82 | 1019.8 |
| 20260506185038 | 59 | 237 | 1.7 | 6.1 | 0.00 | 0.00 | 0.00 | 83 | 1019.8 |
| 20260506184551 | 59 | 295 | 1.7 | 5.2 | 0.00 | 0.00 | 0.00 | 82 | 1019.7 |
| 20260506184038 | 59 | 267 | 1.7 | 5.2 | 0.00 | 0.00 | 0.00 | 83 | 1019.8 |
| 20260506183537 | 59 | 269 | 1.7 | 3.5 | 0.00 | 0.00 | 0.00 | 85 | 1019.9 |
| 20260506183047 | 58 | 284 | 1.7 | 3.5 | 0.00 | 0.00 | 0.00 | 84 | 1019.9 |
| 20260506182536 | 58 | 308 | 0.9 | 4.3 | 0.00 | 0.00 | 0.00 | 84 | 1020.0 |
| 20260506182036 | 58 | 246 | 1.7 | 4.3 | 0.00 | 0.00 | 0.00 | 83 | 1019.9 |
| 20260506181547 | 58 | 314 | 1.7 | 3.5 | 0.00 | 0.00 | 0.00 | 83 | 1019.9 |
| 20260506181037 | 58 | 292 | 1.7 | 4.3 | 0.00 | 0.00 | 0.00 | 83 | 1019.9 |
| 20260506180537 | 58 | 322 | 1.7 | 5.2 | 0.00 | 0.00 | 0.00 | 82 | 1019.8 |
| 20260506180054 | 59 | 283 | 1.7 | 5.2 | 0.00 | 0.00 | 0.00 | 81 | 1019.8 |
| 20260506175536 | 59 | 284 | 1.7 | 3.5 | 0.00 | 0.00 | 0.00 | 84 | 1019.7 |
| 20260506175033 | 58 | 246 | 0.9 | 3.5 | 0.00 | 0.00 | 0.00 | 83 | 1019.8 |
| 20260506174542 | 58 | 293 | 1.7 | 4.3 | 0.00 | 0.00 | 0.00 | 83 | 1019.7 |
| 20260506174033 | 58 | 252 | 1.7 | 4.3 | 0.00 | 0.00 | 0.00 | 82 | 1019.7 |
| 20260506173535 | 58 | 288 | 1.7 | 4.3 | 0.00 | 0.00 | 0.00 | 83 | 1019.7 |
| 20260506173048 | 58 | 281 | 1.7 | 5.2 | 0.00 | 0.00 | 0.00 | 83 | 1019.7 |
| 20260506172533 | 58 | 298 | 1.7 | 5.2 | 0.00 | 0.00 | 0.00 | 84 | 1019.7 |
| 20260506172033 | 58 | 278 | 1.7 | 5.2 | 0.00 | 0.00 | 0.00 | 83 | 1019.7 |
| 20260506171556 | 58 | 241 | 0.9 | 3.5 | 0.00 | 0.00 | 0.00 | 84 | 1019.7 |
| 20260506171040 | 58 | 298 | 1.7 | 3.5 | 0.00 | 0.00 | 0.00 | 84 | 1019.7 |
| 20260506170540 | 58 | 355 | 0.9 | 2.6 | 0.00 | 0.00 | 0.00 | 84 | 1019.8 |
| 20260506170049 | 58 | 293 | 0.9 | 3.5 | 0.00 | 0.00 | 0.00 | 85 | 1019.7 |
| 20260506165539 | 57 | 298 | 0.9 | 3.5 | 0.00 | 0.00 | 0.00 | 85 | 1019.7 |
| 20260506165037 | 57 | 340 | 0.9 | 5.2 | 0.00 | 0.00 | 0.00 | 85 | 1019.7 |
| 20260506164558 | 57 | 289 | 1.7 | 5.2 | 0.00 | 0.00 | 0.00 | 85 | 1019.7 |
| 20260506164036 | 57 | 263 | 0.9 | 3.5 | 0.00 | 0.00 | 0.00 | 85 | 1019.6 |
| 20260506163536 | 57 | 317 | 1.7 | 3.5 | 0.00 | 0.00 | 0.00 | 84 | 1019.7 |
| 20260506163054 | 57 | 346 | 0.9 | 5.2 | 0.00 | 0.00 | 0.00 | 84 | 1019.7 |
| 20260506162533 | 57 | 13 | 0.9 | 5.2 | 0.00 | 0.00 | 0.00 | 85 | 1019.7 |
| 20260506162033 | 57 | 293 | 0.9 | 3.5 | 0.00 | 0.00 | 0.00 | 85 | 1019.7 |
| 20260506161604 | 57 | 0 | 0.9 | 2.6 | 0.00 | 0.00 | 0.00 | 85 | 1019.7 |
| 20260506161033 | 57 | 0 | 1.7 | 3.5 | 0.00 | 0.00 | 0.00 | 85 | 1019.6 |
| 20260506160533 | 57 | 318 | 0.9 | 3.5 | 0.00 | 0.00 | 0.00 | 86 | 1019.7 |
| 20260506160052 | 57 | 338 | 0.9 | 2.6 | 0.00 | 0.00 | 0.00 | 86 | 1019.6 |
| 20260506155533 | 56 | 279 | 0.9 | 2.6 | 0.00 | 0.02 | 0.00 | 86 | 1019.7 |
| 20260506155036 | 57 | 346 | 0.0 | 2.6 | 0.00 | 0.02 | 0.00 | 85 | 1019.6 |
| 20260506154610 | 56 | 0 | 0.9 | 2.6 | 0.00 | 0.02 | 0.00 | 86 | 1019.6 |
| 20260506154033 | 56 | 295 | 0.0 | 2.6 | 0.00 | 0.02 | 0.00 | 86 | 1019.5 |
| 20260506153536 | 56 | 291 | 0.9 | 2.6 | 0.00 | 0.02 | 0.00 | 86 | 1019.5 |
| 20260506153045 | 56 | 36 | 0.9 | 2.6 | 0.00 | 0.02 | 0.00 | 86 | 1019.5 |
| 20260506152537 | 55 | 310 | 0.0 | 2.6 | 0.00 | 0.02 | 0.00 | 87 | 1019.5 |
| 20260506152039 | 55 | 276 | 0.9 | 2.6 | 0.00 | 0.02 | 0.00 | 87 | 1019.5 |
| 20260506151545 | 56 | 295 | 0.9 | 1.7 | 0.00 | 0.02 | 0.00 | 88 | 1019.5 |
| 20260506151038 | 55 | 331 | 0.0 | 1.7 | 0.00 | 0.02 | 0.00 | 88 | 1019.5 |
| 20260506150541 | 55 | 0 | 0.0 | 2.6 | 0.00 | 0.02 | 0.00 | 88 | 1019.5 |
| 20260506150053 | 55 | 0 | 0.0 | 2.6 | 0.00 | 0.02 | 0.00 | 88 | 1019.4 |
| 20260506145543 | 55 | 288 | 0.9 | 3.5 | 0.00 | 0.02 | 0.00 | 87 | 1019.4 |
| 20260506145039 | 55 | 0 | 0.0 | 3.5 | 0.00 | 0.02 | 0.00 | 87 | 1019.4 |
| 20260506144555 | 55 | 0 | 0.0 | 3.5 | 0.00 | 0.02 | 0.00 | 88 | 1019.4 |
| 20260506144038 | 55 | 0 | 0.0 | 1.7 | 0.00 | 0.02 | 0.00 | 88 | 1019.3 |
| 20260506143538 | 55 | 313 | 0.0 | 2.6 | 0.00 | 0.02 | 0.00 | 87 | 1019.3 |
| 20260506143041 | 55 | 306 | 0.0 | 2.6 | 0.00 | 0.02 | 0.00 | 88 | 1019.3 |
| 20260506142540 | 55 | 0 | 0.9 | 2.6 | 0.00 | 0.02 | 0.00 | 87 | 1019.3 |
| 20260506142038 | 55 | 59 | 0.0 | 2.6 | 0.00 | 0.02 | 0.00 | 88 | 1019.2 |
| 20260506141549 | 55 | 317 | 0.0 | 1.7 | 0.00 | 0.02 | 0.00 | 88 | 1019.2 |
| 20260506141038 | 55 | 5 | 0.0 | 2.6 | 0.00 | 0.02 | 0.00 | 88 | 1019.1 |
| 20260506140541 | 55 | 0 | 0.9 | 2.6 | 0.00 | 0.02 | 0.00 | 87 | 1019.0 |
| 20260506140057 | 55 | 5 | 0.0 | 2.6 | 0.00 | 0.02 | 0.00 | 87 | 1019.0 |
| 20260506135537 | 55 | 0 | 0.0 | 2.6 | 0.00 | 0.02 | 0.00 | 87 | 1018.9 |
| 20260506135037 | 55 | 0 | 0.9 | 2.6 | 0.00 | 0.02 | 0.00 | 87 | 1018.9 |
| 20260506134552 | 55 | 311 | 0.0 | 1.7 | 0.00 | 0.02 | 0.00 | 87 | 1018.8 |
| 20260506134038 | 55 | 336 | 0.0 | 1.7 | 0.00 | 0.02 | 0.00 | 86 | 1018.8 |
| 20260506133537 | 55 | 328 | 0.0 | 2.6 | 0.00 | 0.02 | 0.00 | 86 | 1018.8 |
| 20260506133054 | 56 | 29 | 0.0 | 2.6 | 0.00 | 0.02 | 0.00 | 86 | 1018.8 |
| 20260506132538 | 55 | 0 | 0.0 | 3.5 | 0.00 | 0.02 | 0.00 | 85 | 1018.7 |
| 20260506132042 | 55 | 290 | 0.0 | 3.5 | 0.00 | 0.02 | 0.00 | 84 | 1018.5 |
| 20260506131543 | 55 | 290 | 1.7 | 3.5 | 0.00 | 0.02 | 0.00 | 84 | 1018.6 |
| 20260506131039 | 55 | 318 | 0.0 | 1.7 | 0.00 | 0.02 | 0.00 | 84 | 1018.5 |
| 20260506130540 | 55 | 0 | 0.0 | 2.6 | 0.00 | 0.02 | 0.00 | 84 | 1018.4 |
| 20260506130050 | 55 | 273 | 0.9 | 2.6 | 0.00 | 0.02 | 0.00 | 84 | 1018.5 |
| 20260506125538 | 55 | 287 | 0.9 | 3.5 | 0.00 | 0.02 | 0.00 | 85 | 1018.5 |
| 20260506125039 | 55 | 336 | 0.9 | 4.3 | 0.00 | 0.02 | 0.00 | 84 | 1018.5 |
| 20260506124542 | 55 | 299 | 0.9 | 4.3 | 0.00 | 0.02 | 0.00 | 84 | 1018.4 |
| 20260506124039 | 55 | 345 | 0.9 | 4.3 | 0.00 | 0.02 | 0.00 | 84 | 1018.4 |
| 20260506123541 | 55 | 312 | 0.0 | 3.5 | 0.00 | 0.02 | 0.00 | 85 | 1018.4 |
| 20260506123047 | 55 | 19 | 0.0 | 2.6 | 0.00 | 0.02 | 0.00 | 85 | 1018.3 |
| 20260506122535 | 55 | 303 | 0.9 | 3.5 | 0.00 | 0.02 | 0.00 | 85 | 1018.2 |
| 20260506122036 | 55 | 42 | 0.9 | 3.5 | 0.00 | 0.02 | 0.00 | 85 | 1018.2 |
| 20260506121545 | 55 | 346 | 0.9 | 2.6 | 0.00 | 0.02 | 0.00 | 85 | 1018.2 |
| 20260506121037 | 55 | 312 | 0.0 | 2.6 | 0.00 | 0.02 | 0.00 | 85 | 1018.2 |
| 20260506120542 | 55 | 298 | 0.9 | 2.6 | 0.00 | 0.02 | 0.00 | 85 | 1018.1 |
| 20260506120047 | 55 | 269 | 0.9 | 2.6 | 0.00 | 0.02 | 0.00 | 85 | 1018.1 |
| 20260506115537 | 55 | 0 | 0.0 | 2.6 | 0.00 | 0.02 | 0.00 | 85 | 1018.1 |
| 20260506115036 | 55 | 0 | 0.0 | 3.5 | 0.00 | 0.02 | 0.00 | 85 | 1018.1 |
| 20260506114558 | 55 | 301 | 0.9 | 3.5 | 0.00 | 0.02 | 0.00 | 86 | 1018.0 |
| 20260506114037 | 55 | 288 | 1.7 | 3.5 | 0.00 | 0.02 | 0.00 | 85 | 1018.0 |
| 20260506113536 | 55 | 0 | 0.0 | 3.5 | 0.00 | 0.02 | 0.00 | 86 | 1018.0 |
| 20260506113053 | 55 | 279 | 0.0 | 2.6 | 0.00 | 0.02 | 0.00 | 85 | 1018.0 |
| 20260506112536 | 55 | 312 | 0.9 | 3.5 | 0.00 | 0.02 | 0.00 | 85 | 1017.9 |
| 20260506112036 | 55 | 231 | 0.9 | 3.5 | 0.00 | 0.02 | 0.00 | 85 | 1017.9 |
| 20260506111552 | 55 | 345 | 0.9 | 3.5 | 0.00 | 0.02 | 0.00 | 85 | 1017.9 |
| 20260506111040 | 55 | 288 | 1.7 | 3.5 | 0.00 | 0.02 | 0.00 | 85 | 1017.7 |
| 20260506110536 | 55 | 292 | 0.9 | 3.5 | 0.00 | 0.02 | 0.00 | 85 | 1017.8 |
| 20260506110047 | 55 | 295 | 0.9 | 3.5 | 0.00 | 0.02 | 0.00 | 85 | 1017.8 |
| 20260506105536 | 55 | 284 | 0.9 | 7.0 | 0.00 | 0.02 | 0.00 | 85 | 1017.7 |
| 20260506105036 | 55 | 313 | 0.9 | 7.0 | 0.00 | 0.02 | 0.00 | 85 | 1017.7 |
| 20260506104553 | 55 | 282 | 0.9 | 3.5 | 0.00 | 0.02 | 0.00 | 86 | 1017.7 |
| 20260506104036 | 55 | 331 | 0.9 | 4.3 | 0.00 | 0.02 | 0.00 | 86 | 1017.7 |
| 20260506103533 | 55 | 275 | 0.9 | 4.3 | 0.00 | 0.02 | 0.00 | 86 | 1017.7 |
| 20260506103058 | 55 | 249 | 0.9 | 3.5 | 0.00 | 0.02 | 0.00 | 86 | 1017.7 |
| 20260506102534 | 55 | 272 | 0.9 | 2.6 | 0.00 | 0.02 | 0.00 | 86 | 1017.7 |
| 20260506102034 | 55 | 284 | 0.9 | 2.6 | 0.00 | 0.02 | 0.00 | 86 | 1017.6 |
| 20260506101550 | 55 | 263 | 0.9 | 2.6 | 0.00 | 0.02 | 0.00 | 86 | 1017.6 |
| 20260506101036 | 55 | 286 | 0.9 | 3.5 | 0.00 | 0.02 | 0.00 | 86 | 1017.6 |
| 20260506100533 | 55 | 293 | 0.9 | 4.3 | 0.00 | 0.02 | 0.00 | 86 | 1017.6 |
| 20260506100043 | 55 | 281 | 0.9 | 4.3 | 0.00 | 0.02 | 0.00 | 86 | 1017.6 |
| 20260506095540 | 55 | 329 | 0.9 | 5.2 | 0.00 | 0.03 | 0.00 | 86 | 1017.6 |
| 20260506095033 | 55 | 279 | 1.7 | 5.2 | 0.00 | 0.03 | 0.00 | 86 | 1017.6 |
| 20260506094541 | 55 | 269 | 0.9 | 3.5 | 0.00 | 0.03 | 0.00 | 86 | 1017.6 |
| 20260506094033 | 55 | 289 | 0.9 | 3.5 | 0.00 | 0.03 | 0.00 | 87 | 1017.7 |
| 20260506093536 | 55 | 0 | 0.9 | 3.5 | 0.00 | 0.03 | 0.00 | 87 | 1017.6 |
| 20260506093046 | 55 | 0 | 0.0 | 3.5 | 0.00 | 0.03 | 0.00 | 87 | 1017.6 |
| 20260506092533 | 55 | 281 | 0.9 | 2.6 | 0.00 | 0.03 | 0.00 | 88 | 1017.5 |
| 20260506092033 | 55 | 304 | 0.0 | 2.6 | 0.00 | 0.03 | 0.00 | 88 | 1017.5 |
| 20260506091544 | 55 | 273 | 0.9 | 3.5 | 0.00 | 0.03 | 0.00 | 88 | 1017.5 |
| 20260506091109 | 55 | 278 | 0.9 | 3.5 | 0.00 | 0.03 | 0.00 | 88 | 1017.4 |
| 20260506090538 | 55 | 295 | 0.9 | 2.6 | 0.00 | 0.03 | 0.00 | 88 | 1017.5 |
| 20260506090043 | 55 | 267 | 0.9 | 2.6 | 0.00 | 0.03 | 0.00 | 88 | 1017.5 |
| 20260506085537 | 55 | 310 | 0.0 | 3.5 | 0.00 | 0.11 | 0.00 | 88 | 1017.5 |
| 20260506085037 | 55 | 291 | 0.9 | 3.5 | 0.00 | 0.11 | 0.00 | 88 | 1017.5 |
| 20260506084545 | 55 | 290 | 1.7 | 3.5 | 0.00 | 0.11 | 0.00 | 88 | 1017.4 |
| 20260506084037 | 55 | 277 | 0.9 | 3.5 | 0.00 | 0.11 | 0.00 | 88 | 1017.5 |
| 20260506083539 | 55 | 0 | 0.9 | 3.5 | 0.00 | 0.11 | 0.00 | 88 | 1017.5 |
| 20260506083052 | 56 | 286 | 1.7 | 3.5 | 0.00 | 0.11 | 0.00 | 88 | 1017.5 |
| 20260506082540 | 56 | 289 | 0.9 | 3.5 | 0.00 | 0.11 | 0.00 | 88 | 1017.6 |
| 20260506082038 | 56 | 280 | 0.9 | 3.5 | 0.00 | 0.11 | 0.00 | 88 | 1017.5 |
| 20260506081552 | 56 | 265 | 0.0 | 3.5 | 0.00 | 0.11 | 0.00 | 88 | 1017.6 |
| 20260506081040 | 56 | 279 | 0.9 | 3.5 | 0.00 | 0.11 | 0.00 | 88 | 1017.6 |
| 20260506080538 | 56 | 285 | 0.9 | 3.5 | 0.00 | 0.11 | 0.00 | 88 | 1017.6 |
| 20260506073053 | 56 | 327 | 0.0 | 3.5 | 0.00 | 0.13 | 0.00 | 88 | 1017.3 |
| 20260506072538 | 56 | 280 | 0.9 | 3.5 | 0.00 | 0.13 | 0.00 | 87 | 1017.4 |
| 20260506072037 | 56 | 283 | 1.7 | 3.5 | 0.00 | 0.13 | 0.00 | 87 | 1017.3 |
| 20260506071544 | 56 | 289 | 0.9 | 3.5 | 0.00 | 0.13 | 0.00 | 87 | 1017.3 |
| 20260506071038 | 56 | 295 | 0.9 | 4.3 | 0.00 | 0.13 | 0.00 | 87 | 1017.3 |
| 20260506070538 | 56 | 0 | 0.9 | 5.2 | 0.00 | 0.13 | 0.00 | 87 | 1017.3 |